www.pogodaiklimat.ru

Погода и климат >> Архив погоды >> Россия >> Камчатский край >> Мыс Лопатка


ПОГОДА на Мысе Лопатка

  • Прогноз погоды на Мысе Лопатка
  • Монитор погоды на Мысе Лопатка
  • Климат города

АРХИВ ПОГОДЫ на Мысе Лопатка

Время (UTC), дата Ветер
(напр.,м/с)
 
Видим.   Явления Облачность Т
(С)
Тd
(С)
f
(%)
Тe
(С)
Тes
(С)
Комфортность P
(гПа)
Po
(гПа)
Тmin
(С)
Tmax
(С)
R
(мм)
R24
(мм)
S
(см)
21 16.06 Ю 4 200 м туман ?/? +4.6 +4.4 99 0 0 1018.6 1012.3 +3.7
00 17.06 Ю 4 4000 м дымка {туман} 10/10 100 м
[St]
+5.8 +5.6 99 +2 +2 1018.2 1011.9
03 17.06 Ю 5 4000 м дымка 10/10 200 м
[St]
+6.2 +5.2 93 +2 +2 1018.0 1011.7
06 17.06 Ю 5 20 км 10/10 300 м
[St]
+6.3 +5.0 91 +2 +2 1017.6 1011.3
09 17.06 Ю 4 10 км 10/10 200 м
[St]
+5.3 +4.7 96 +1 +1 1018.4 1012.1 +6.8
12 17.06 ЮЗ 3 4000 м дымка 10/10 200 м
[St]
+4.6 +4.3 98 +1 +1 1018.2 1011.9
15 17.06 ЮЗ 3 4000 м дымка 10/10 200 м
[St]
+4.6 +4.4 99 +1 +1 1017.8 1011.6
18 17.06 З 2 2000 м дымка 10/10 100 м
[St]
+4.7 +4.5 99 +2 +2 1018.0 1011.7
21 17.06 СЗ 6 500 м туман ?/? +5.3 +5.1 99 0 0 1018.4 1012.1 +4.5
03 18.06 СЗ 8 4000 м дымка 10/10 200 м
[St]
+7.2 +5.8 91 +2 +2 1017.6 1011.5
06 18.06 СЗ 9-11
{11}
4000 м дымка 10/10 200 м
[St]
+6.8 +5.8 93 +1 +1 1018.1 1012.0
09 18.06 СЗ 9-11
{13}
2000 м дымка 10/10 100 м
[St]
+6.1 +5.4 95 0 0 1018.7 1012.4 +7.5
12 18.06 СЗ 7
{11}
4000 м в посл. час туман 10/10 200 м
[St]
+5.0 +4.7 98 -1 -1 1019.2 1012.9
15 18.06 СЗ 8 2000 м дымка 10/10 100 м
[St]
+5.0 +4.8 99 -1 -1 1018.9 1012.6
18 18.06 СЗ 8-10
{11}
10 км 10/10 300 м
[St]
+5.1 +4.9 99 -1 -1 1019.1 1012.8
21 18.06 З 5
{10}
20 км 9/8 600 м
[Sc Ci sp]
+5.8 +5.2 96 +1 +2 1019.6 1013.3 +4.7
00 19.06 ЮЗ 3 4000 м слабый ливневой дождь 10/10 200 м
[Cb cap]
+5.6 +5.1 97 +2 +2 1019.7 1013.4
03 19.06 ЮЗ 7-10
{10}
20 км {ливн. осадки} 10/8 300 м
[Sc Ac As]
+5.0 +4.6 97 -1 -0 1018.3 1012.0
06 19.06 ЮЗ 5
{11}
10 км слабый ливневой дождь 10/10 300 м
[Cb cap]
+4.8 +4.2 96 -0 -0 1018.0 1011.7
09 19.06 ЮЗ 3 10 км дождь со снегом {ливн. осадки} 10/4 300 м
[Frnb Ac As]
+4.7 +4.3 97 +1 +1 1017.9 1011.6 +6.5 2
12 19.06 ЮЗ 6 4000 м дождь {ливн. осадки} 10/10 300 м
[Frnb Ns]
+4.6 +4.3 98 -1 -1 1017.4 1011.1
15 19.06 ЮЗ 7-10
{10}
4000 м дождь 10/10 300 м
[Frnb Ns]
+4.4 +4.0 97 -2 -2 1016.1 1009.8
18 19.06 -10
{10}
дождь н/о +4.0 1015.0 1008.7
21 19.06 ЮЗ 7-10
{11}
10 км слабый дождь 10/10 300 м
[Frnb Ns]
+4.8 +4.3 97 -1 -1 1014.7 1008.4 +4.3 11
00 20.06 ЮЗ 6
{11}
10 км слабый ливневой дождь 10/10 300 м
[Cb cap]
+4.8 +4.2 96 -1 -1 1014.1 1007.8
03 20.06 ЮЗ 4 10 км слабый ливневой дождь 10/10 300 м
[Cb cap]
+4.8 +4.4 97 0 0 1012.8 1006.5
06 20.06 ЮЗ 4 2000 м морось {ливн. осадки} 10/10 100 м
[St]
+4.5 +4.3 99 -0 -0 1012.0 1005.7
09 20.06 Ю 3 20 км {морось} 10/10 600 м
[Sc]
+4.4 +4.2 99 +1 +1 1011.0 1004.8 +4.8 2
12 20.06 З 2 20 км {морось} 10/10 600 м
[Sc]
+4.5 +4.3 99 +2 +2 1010.5 1004.2
15 20.06 СЗ 2 20 км дымка 10/10 100 м
[Sc]
+4.8 +4.6 99 +2 +2 1007.3 1003.0
18 20.06 СЗ 4 500 м морось {туман} туман ?/? +5.0 +4.8 99 +1 +1 1008.8 1002.6
21 20.06 СЗ 5 10 км {морось, туман} 10/10 300 м
[St]
+5.6 +5.3 98 +1 +1 1008.4 1002.2 +4.4 0.3
00 21.06 СЗ 9-11
{12}
20 км {морось, туман} 9/8 300 м
[St Ci sp]
+7.0 +6.7 98 +1 +2 1007.7 1001.6
03 21.06 СЗ 10-12
{13}
20 км 8/4 300 м
[St Ci sp]
+7.7 +6.6 93 +2 +3 1007.7 1001.6
06 21.06 СЗ 9-11
{13}
20 км 9/9 300 м
[St]
+6.9 +5.7 92 +1 +1 1008.3 1002.2
09 21.06 СЗ 8-10
{12}
10 км 10/10 300 м
[St]
+6.1 +5.6 97 0 0 1009.5 1003.3 +7.9
12 21.06 СЗ 8-10
{11}
20 км 10/10 300 м
[St]
+6.1 +5.6 97 0 0 1010.5 1004.3
15 21.06 СЗ 6
{10}
2000 м дымка 10/10 100 м
[St]
+5.7 +5.4 98 +1 +1 1010.7 1004.5
18 21.06 штиль 0 2000 м дымка 10/10 100 м
[St]
+6.0 +5.7 98 +5 +5 1011.8 1005.5
21 21.06 В 4 20 км 9/8 600 м
[Sc Ac trans Ci sp]
+6.2 +5.8 97 +2 +3 1012.6 1006.3 +5.5
00 22.06 В 4 20 км 10/10 600 м
[Sc]
+7.1 +5.6 90 +3 +3 1013.4 1007.3
03 22.06 ЮВ 4 20 км 8/1 600 м
[Sc Ac trans Ci sp]
+7.9 +6.1 88 +5 +10 1012.5 1006.4
06 22.06 ЮВ 3 50 км 3/1 600 м
[Sc Ci sp]
+7.7 +6.0 89 +5 +9 1012.5 1006.4
09 22.06 Ю 4 50 км 3/1 600 м
[Sc Ci fib]
+6.6 +5.3 91 +3 +3 1012.9 1006.8 +8.6
12 22.06 В 7 20 км 10/10 600 м
[Sc]
+6.2 +5.4 95 +1 +1 1012.3 1006.0
15 22.06 В 9-11
{12}
4000 м дымка 10/10 200 м
[St]
+5.9 +5.6 98 -0 -0 1011.6 1005.3
18 22.06 В 8-10
{14}
20 км 10/10 600 м
[Sc]
+6.8 +5.0 88 +2 +2 1011.0 1004.8
21 22.06 В 10-13
{14}
20 км 9/9 300 м
[Sc]
+6.8 +5.4 91 +1 +1 1010.9 1004.8 +5.5
00 23.06 В 10-13
{15}
20 км 10/10 600 м
[Sc]
+6.9 +5.0 88 +1 +1 1010.2 1004.1
03 23.06 В 9-13
{14}
20 км 8/1 600 м
[Sc Ac trans Ci sp]
+8.3 +5.9 85 +3 +4 1009.6 1003.5
06 23.06 В 8-12
{14}
20 км 9/9 600 м
[Sc]
+7.0 +5.0 87 +2 +2 1009.2 1003.1
09 23.06 В 9-12
{15}
20 км 10/10 600 м
[Sc]
+6.4 +4.9 90 +1 +1 1009.7 1003.5 +8.9
12 23.06 В 7
{12}
20 км 9/9 600 м
[Sc]
+6.1 +4.8 91 +1 +1 1010.0 1003.8
15 23.06 В 7 20 км 10/10 600 м
[Sc]
+6.1 +4.9 92 +1 +1 1009.5 1003.3
18 23.06 СВ 5 20 км 9/9 600 м
[Sc]
+6.7 +5.0 89 +2 +2 1009.5 1003.4

 

Местоположение метеостанции Мыс Лопатка (Камчатский край, Россия): широта 50.87 долгота 156.60 высота над уровнем моря 50 м.

В архиве по умолчанию представлена погода на Мысе Лопатка за последнюю неделю. Архивные данные за месяц целиком и за предыдущие месяцы, начиная с января 2011 года, Вы можете получить, выбрав интересующий диапазон дат из раскрывающегося списка и нажав кнопку "Ввод!".

Внимание! Время в таблицах - всемирное. Для получения местного времени необходимо прибавить поправку, которая на Мысе Лопатка равна 12 ч.

Смотрите также архив погоды в соседних городах и на ближайших метеорологических станциях:

Погода в Северо-Курильске (Сахалинская область, Россия) (41 км)
Погода в Озерной (Камчатский край, Россия) (69 км)
Погода в Водопадной (Камчатский край, Россия) (144 км)
Погода в Большерецке (Камчатский край, Россия) (219 км)
Погода в Начиках (Камчатский край, Россия) (261 км)
Погода в Петропавловск-Камчатском (Камчатский край, Россия) (261 км)
Погода в Петропавловском Маяке (Камчатский край, Россия) (266 км)
Погода в Сосновке (Камчатский край, Россия) (272 км)
Погода в Петропавловск-Камч. 2 (Камчатский край, Россия) (278 км)
Погода в Пущино (Камчатский край, Россия) (380 км)

Пояснения к столбцам:

Ветер - указаны скорость ветра в м/с - средняя за 10 мин, порывы в срок и между сроками (в фигурных скобках) и направление, откуда дует ветер: С - северный, СВ - северо-восточный, В - восточный, ЮВ - юго-восточный, Ю - южный, ЮЗ - юго-западный, З - западный, СЗ - северо-западный.
Видимость - горизонтальная дальность видимости в метрах или километрах. При видимости от 1 до 10 км при отсутствии осадков обычно наблюдается дымка, при ухудшении видимости до 1 км и менее - туман. В сухую погоду видимость может ухудшаться дымом, пылью или мглою.
Явления - указаны атмосферные явления, наблюдавшиеся в срок или в последний час перед сроком; фигурными скобками обозначены явления, наблюдавшиеся между сроками (за 1-3 часа до срока); квадратными скобками обозначены град или гололедные отложения с указанием их диаметра в мм.
Облачность - указаны через наклонную черту общая и нижняя облачность в баллах и высота нижней границы облаков в метрах; квадратными скобками обозначены формы облаков: Ci - перистые, Cs - перисто-слоистые, Cc - перисто-кучевые, Ac - высококучевые, As - высокослоистые, Sc - слоисто-кучевые, Ns - слоисто-дождевые, Cu - кучевые, Cb - кучево-дождевые. Подробнее классификацию облаков см. в Атласе облаков (PDF).
T - Температура воздуха - температура, измеренная на высоте 2 м над землей.
Td - Температура точки росы - температура, при понижении до которой содержащийся в воздухе водяной пар достигнет насыщения.
f - Относительная влажность воздуха - влажноcть воздуха, измеренная на высоте 2 м над землей.
Te - Эффективная температура - температура, которую ощущает одетый по сезону человек в тени. Характеристика душности погоды. При расчете учитывается влияние влажности воздуха и скорости ветра на теплоощущения человека.
Tes - Эффективная температура на солнце - температура, которую ощущает человек, с поправкой на солнечный нагрев. Характеристика знойности погоды. Зависит от высоты солнца над горизонтом, облачности и скорости ветра. Ночью, в пасмурную погоду, а также при ветре 12 м/с и более поправка равна нулю.
P - Атмосферное давление - приведенное к уровню моря атмосферное давление.
Po - Атмосферное давление - измеренное на уровне метеостанции атмосферное давление.
Tmin - Минимальная температура - минимум температуры воздуха на высоте 2 м над землей.
Tmax - Максимальная температура - максимум температуры воздуха на высоте 2 м над землей.
R - Количество осадков - Количество выпавших осадков за период времени, мм. При наведении курсора мыши на число - период времени, за который выпало указанное количество осадков.
R24 - Количество осадков - Количество выпавших осадков за 24 часа, мм.
S - Снежный покров - Высота снежного покрова, см. При наведении курсора мыши на число - состояние снежного покрова и степень покрытия местности в баллах.